Location: Lake Lucerne
(45.5315°N, 88.8489°W)
Time: 17:34:42
(UTC-05:00)

Amateur Radio Satellites - All Passes

Search period start: 24 June 2017 17:04
Search period end: 25 June 2017 17:04
Location: Lake Lucerne, 45.5315°N, 88.8489°W

Satellite Date Start Highest point End Downlink Frequencies (MHz)
Time Altitude Azimuth
CUBESAT XI-V 24 Jun 17:08:18 17:12:40 42° 98° (E) 17:17:01 437.345
STARS 24 Jun 17:11:04 17:13:13 13° 90° (E) 17:15:22 437.465
KAITUO 1B 24 Jun 17:11:24 17:13:28 14° 64° (ENE) 17:15:32 145.475/437.950
ITAMSAT 1 24 Jun 17:13:19 17:15:08 12° 273° (W) 17:16:57 435.822/435.867
DOVE 4 24 Jun 17:17:00 17:20:58 46° 71° (ENE) 17:25:05 437.250
SO-50 24 Jun 17:42:15 17:44:00 12° 334° (NNW) 17:45:46 436.795
HO-68 24 Jun 17:45:20 17:50:50 24° 54° (NE) 17:56:20 435.675
NUDT-PHONESAT 24 Jun 17:47:15 17:50:40 33° 70° (ENE) 17:54:04 437.300
XW-2F 24 Jun 17:58:45 18:02:30 57° 74° (ENE) 18:06:16 145.980 - 146.000
XW-2D 24 Jun 18:01:51 18:05:39 68° 76° (ENE) 18:09:29 145.860 - 145.880
CUTE-I 24 Jun 18:04:02 18:09:17 66° 72° (ENE) 18:14:36 437.470
LilacSat-2 24 Jun 18:08:39 18:12:31 84° 76° (ENE) 18:16:24 437.200
MOZHAYETS 4 24 Jun 18:09:42 18:11:35 12° 302° (WNW) 18:13:28
XW-2B 24 Jun 18:10:47 18:14:37 84° 76° (ENE) 18:18:29 145.730 - 145.750
KKS-1 24 Jun 18:12:40 18:17:07 65° 287° (WNW) 18:21:33 437.445
SEEDS 24 Jun 18:22:21 18:24:22 13° 61° (ENE) 18:26:22 437.485
XW-2C 24 Jun 18:26:16 18:30:05 63° 259° (W) 18:33:55 145.795 - 145.815
CUTE 1.7 + AOD 2 24 Jun 18:35:47 18:39:21 27° 67° (ENE) 18:42:56 437.475
CUBEBUG 2 24 Jun 18:36:08 18:39:07 17° 61° (ENE) 18:42:10 437.445
KAITUO 1B 24 Jun 18:43:24 18:47:05 50° 260° (W) 18:50:47 145.475/437.950
STARS 24 Jun 18:45:35 18:50:01 67° 286° (WNW) 18:54:25 437.465
CUBESAT XI-V 24 Jun 18:46:12 18:49:48 23° 296° (WNW) 18:53:23 437.345
XW-2A 24 Jun 18:55:02 18:57:58 27° 69° (ENE) 19:00:56 145.665 - 145.685
STRAND 1 24 Jun 18:55:27 18:56:11 10° 86° (E) 18:56:55 437.568
DOVE 4 24 Jun 18:56:18 18:58:59 17° 270° (W) 19:01:45 437.250
ZACube-1 24 Jun 19:10:25 19:12:42 14° 60° (ENE) 19:14:59 437.345
UWE-3 24 Jun 19:11:26 19:15:01 23° 64° (ENE) 19:18:40 435.000/436.395/437.385
AAUSAT CUBESAT 2 24 Jun 19:15:17 19:18:27 22° 66° (ENE) 19:21:37 437.432
NUDT-PHONESAT 24 Jun 19:21:54 19:24:38 19° 267° (W) 19:27:23 437.300
HO-68 24 Jun 19:30:36 19:37:49 80° 254° (WSW) 19:45:05 435.675
XW-2F 24 Jun 19:35:34 19:37:00 12° 271° (W) 19:38:24 145.980 - 146.000
PCSat 24 Jun 19:40:43 19:44:16 17° 34° (NE) 19:47:48 145.827
CUTE-I 24 Jun 19:46:15 19:49:49 18° 270° (W) 19:53:25 437.470
SEEDS 24 Jun 19:55:20 19:59:30 69° 258° (WSW) 20:03:42 437.485
AO-73 24 Jun 20:09:40 20:13:57 43° 70° (ENE) 20:18:18 145.935
CUBEBUG 2 24 Jun 20:10:40 20:15:12 63° 260° (W) 20:19:55 437.445
CUTE 1.7 + AOD 2 24 Jun 20:11:20 20:15:06 30° 264° (W) 20:18:53 437.475
XW-2A 24 Jun 20:28:09 20:30:43 20° 266° (W) 20:33:19 145.665 - 145.685
STRAND 1 24 Jun 20:30:59 20:36:11 80° 102° (ESE) 20:41:20 437.568
BEESAT 3 24 Jun 20:33:14 20:35:12 13° 110° (ESE) 20:37:11 437.485
Oscar 11 24 Jun 20:38:08 20:42:26 65° 74° (ENE) 20:46:46 .
RS-15 24 Jun 20:41:54 20:52:59 44° 108° (ESE) 21:04:14 29.354- 29.394
ZACube-1 24 Jun 20:43:46 20:48:19 79° 257° (WSW) 20:52:58 437.345
UWE-3 24 Jun 20:46:49 20:51:11 44° 262° (W) 20:55:40 435.000/436.395/437.385
AAUSAT CUBESAT 2 24 Jun 20:49:54 20:53:43 36° 263° (W) 20:57:32 437.432
DELFI C3 24 Jun 20:51:10 20:54:17 23° 67° (ENE) 20:57:26 145.870
O/OREOS (USA 219) 24 Jun 20:58:56 21:01:19 14° 99° (E) 21:03:41 437.305
SO-50 24 Jun 21:07:52 21:09:25 11° 25° (NNE) 21:10:59 436.795
YUBILEINY 24 Jun 21:17:30 21:24:50 31° 82° (E) 21:32:12 435.215
HO-68 24 Jun 21:22:43 21:26:39 15° 274° (W) 21:30:35 435.675
PCSat 24 Jun 21:23:12 21:28:39 72° 56° (NE) 21:34:03 145.827
FO-29 24 Jun 21:23:59 21:29:53 23° 88° (E) 21:35:45 435.910
BEESAT 2 24 Jun 21:28:57 21:31:44 18° 112° (ESE) 21:34:33 435.950
AO-85 24 Jun 21:33:22 21:37:25 86° 307° (NW) 21:41:23 145.980
AO-73 24 Jun 21:46:52 21:50:22 22° 268° (W) 21:53:54 145.935
EO-88 24 Jun 22:03:35 22:07:15 76° 258° (WSW) 22:10:58 145.990 - 145.960
BEESAT 3 24 Jun 22:08:17 22:12:15 67° 308° (NW) 22:16:17 437.485
STRAND 1 24 Jun 22:11:37 22:14:43 16° 302° (WNW) 22:17:48 437.568
Oscar 11 24 Jun 22:16:56 22:19:01 13° 271° (W) 22:21:05 .
NO-84 24 Jun 22:18:46 22:22:30 41° 134° (SE) 22:26:30 435.350 FM
M-CUBED/EXP-1 PRIME 24 Jun 22:20:00 22:23:26 36° 105° (ESE) 22:27:06 437.505
TIGRISAT 24 Jun 22:22:51 22:26:59 30° 95° (E) 22:31:02 435.000
DELFI C3 24 Jun 22:25:29 22:28:56 30° 264° (W) 22:32:25 145.870
LO-87 24 Jun 22:29:54 22:32:59 28° 69° (ENE) 22:36:05 145.935 - 145.965
PRISM 24 Jun 22:31:51 22:35:40 37° 98° (E) 22:39:29 437.425
O/OREOS (USA 219) 24 Jun 22:35:38 22:40:10 66° 296° (WNW) 22:44:41 437.305
SO-50 24 Jun 22:46:42 22:51:02 43° 47° (NE) 22:55:23 436.795
ESTCUBE 1 24 Jun 22:48:44 22:52:46 33° 68° (ENE) 22:56:48 437.505/2401.250
RS-15 24 Jun 22:52:48 23:04:59 68° 313° (NW) 23:17:21 29.354- 29.394
VELOX 1 24 Jun 22:57:13 22:58:37 11° 58° (ENE) 23:00:01 145.980
UNISAT 6 24 Jun 23:04:21 23:09:04 85° 104° (ESE) 23:13:40 437.425
BEESAT 2 24 Jun 23:05:15 23:09:08 49° 310° (NW) 23:13:06 435.950
PCSat 24 Jun 23:07:48 23:11:27 19° 254° (WSW) 23:15:05 145.827
FO-29 24 Jun 23:07:49 23:15:39 84° 286° (WNW) 23:23:29 435.910
YUBILEINY 24 Jun 23:12:18 23:21:00 64° 283° (WNW) 23:29:49 435.215
AO-85 24 Jun 23:16:14 23:18:24 14° 326° (NW) 23:20:33 145.980
SPROUT 24 Jun 23:22:51 23:26:01 20° 64° (ENE) 23:29:11 437.525
AIST 2D 24 Jun 23:29:31 23:32:02 18° 93° (E) 23:34:32 435.315
BEESAT 3 24 Jun 23:48:44 23:50:37 13° 328° (NNW) 23:52:29 437.485
M-CUBED/EXP-1 PRIME 24 Jun 23:55:03 23:57:43 20° 299° (WNW) 00:00:31 437.505
NO-84 24 Jun 23:56:11 00:00:07 43° 334° (NNW) 00:04:16 435.350 FM
50 SAT 24 Jun 23:58:22 00:00:35 16° 66° (ENE) 00:02:47 437.505
TIGRISAT 24 Jun 23:59:30 00:03:38 32° 293° (WNW) 00:07:41 435.000
POLYITAN 1 25 Jun 00:03:33 00:07:03 24° 94° (E) 00:10:30 437.675
LO-87 25 Jun 00:03:45 00:06:26 20° 266° (W) 00:09:09 145.935 - 145.965
PRISM 25 Jun 00:07:37 00:10:44 21° 295° (WNW) 00:13:52 437.425
QB50P2 25 Jun 00:14:03 00:17:57 33° 97° (E) 00:21:48 145.880/145.840
O/OREOS (USA 219) 25 Jun 00:19:31 00:20:29 11° 317° (NW) 00:21:28 437.305
ESTCUBE 1 25 Jun 00:25:46 00:29:35 27° 265° (W) 00:33:25 437.505/2401.250
SO-50 25 Jun 00:27:32 00:31:18 26° 245° (WSW) 00:35:05 436.795
VELOX 1 25 Jun 00:30:00 00:34:23 89° 272° (W) 00:38:47 145.980
BUGSAT 1 25 Jun 00:33:24 00:35:14 12° 89° (E) 00:37:04 437.445
EO-79 25 Jun 00:38:39 00:42:52 55° 100° (E) 00:47:03 145.935-145.965
UNISAT 6 25 Jun 00:42:54 00:45:04 13° 302° (WNW) 00:47:15 437.425
BEESAT 2 25 Jun 00:46:53 00:47:52 11° 332° (NNW) 00:48:51 435.950
DX 1 25 Jun 00:52:19 00:56:32 55° 72° (ENE) 01:00:47 434.975-435.025
DUCHIFAT 1 25 Jun 00:53:37 00:57:53 65° 102° (ESE) 01:02:05 145.980
FO-29 25 Jun 00:54:05 00:59:38 22° 305° (NW) 01:05:16 435.910
SPROUT 25 Jun 00:57:34 01:01:38 42° 262° (W) 01:05:44 437.525
NANOSAT C BR1 25 Jun 01:01:41 01:05:59 89° 104° (ESE) 01:10:14 145.865
AIST 2D 25 Jun 01:02:13 01:05:18 29° 290° (WNW) 01:08:20 435.315
RS-15 25 Jun 01:09:28 01:20:21 34° 343° (NNW) 01:31:10 29.354- 29.394
UKube-1 25 Jun 01:11:04 01:15:17 59° 72° (ENE) 01:19:32 .
YUBILEINY 25 Jun 01:15:12 01:19:55 15° 308° (NW) 01:24:41 435.215
Oscar 19 25 Jun 01:26:12 01:29:50 19° 91° (E) 01:33:28 437.125/150
50 SAT 25 Jun 01:30:06 01:33:09 31° 262° (W) 01:36:13 437.505
NO-84 25 Jun 01:35:06 01:38:34 23° 355° (N) 01:42:08 435.350 FM
POLYITAN 1 25 Jun 01:39:00 01:42:53 34° 292° (WNW) 01:46:46 437.675
QB50P2 25 Jun 01:50:03 01:53:36 25° 294° (WNW) 01:57:07 145.880/145.840
MOZHAYETS 4 25 Jun 01:59:46 02:02:11 14° 59° (ENE) 02:04:37
BUGSAT 1 25 Jun 02:06:48 02:11:03 66° 286° (WNW) 02:15:14 437.445
ITUPSAT 1 25 Jun 02:10:06 02:14:08 27° 64° (ENE) 02:18:11 437.325
Gurwin Techsat 1B 25 Jun 02:12:48 02:17:35 33° 96° (E) 02:22:20 435.225
EO-79 25 Jun 02:15:31 02:18:12 17° 298° (WNW) 02:20:53 145.935-145.965
BEESAT 25 Jun 02:20:17 02:24:34 34° 67° (ENE) 02:28:53 436.000
DX 1 25 Jun 02:30:28 02:33:03 15° 269° (W) 02:35:39 434.975-435.025
DUCHIFAT 1 25 Jun 02:30:44 02:33:01 14° 299° (WNW) 02:35:18 145.980
NANOSAT C BR1 25 Jun 02:39:52 02:41:00 11° 302° (WNW) 02:42:09 145.865
UKube-1 25 Jun 02:49:22 02:51:42 14° 270° (W) 02:54:02 .
Oscar 19 25 Jun 03:04:30 03:09:32 58° 289° (WNW) 03:14:33 437.125/150
NO-84 25 Jun 03:13:21 03:17:11 29° 16° (NNE) 03:21:03 435.350 FM
RS-15 25 Jun 03:26:32 03:37:30 34° 18° (NNE) 03:48:06 29.354- 29.394
MOZHAYETS 4 25 Jun 03:34:06 03:38:44 77° 258° (WSW) 03:43:24
KKS-1 25 Jun 03:37:46 03:40:47 18° 62° (ENE) 03:43:48 437.445
ITAMSAT 1 25 Jun 03:40:41 03:45:09 28° 95° (E) 03:49:35 435.822/435.867
ITUPSAT 1 25 Jun 03:47:20 03:51:48 38° 262° (W) 03:56:18 437.325
Gurwin Techsat 1B 25 Jun 03:52:41 03:57:33 37° 294° (WNW) 04:02:23 435.225
BEESAT 25 Jun 03:58:09 04:02:20 30° 264° (W) 04:06:34 436.000
STARS 25 Jun 04:09:36 04:12:24 17° 61° (ENE) 04:15:14 437.465
CUBESAT XI-V 25 Jun 04:13:23 04:17:54 53° 72° (ENE) 04:22:24 437.345
AO-7 25 Jun 04:18:13 04:26:25 55° 102° (ESE) 04:34:35 .
AO-85 25 Jun 04:22:12 04:25:23 22° 41° (NE) 04:28:43 145.980
BEESAT 3 25 Jun 04:46:03 04:49:09 21° 40° (NE) 04:52:13 437.485
NO-84 25 Jun 04:50:52 04:55:17 85° 35° (NE) 04:59:36 435.350 FM
KKS-1 25 Jun 05:12:37 05:16:56 53° 259° (W) 05:21:19 437.445
DOVE 4 25 Jun 05:14:17 05:16:26 13° 88° (E) 05:18:38 437.250
ITAMSAT 1 25 Jun 05:19:49 05:24:45 42° 292° (WNW) 05:29:39 435.822/435.867
RS-15 25 Jun 05:40:22 05:52:39 71° 48° (NE) 06:04:17 29.354- 29.394
BEESAT 2 25 Jun 05:43:21 05:46:51 27° 43° (NE) 05:50:20 435.950
STARS 25 Jun 05:44:00 05:48:18 57° 259° (W) 05:52:40 437.465
CUBESAT XI-V 25 Jun 05:52:27 05:55:35 18° 269° (W) 05:58:43 437.345
XW-2C 25 Jun 05:58:35 05:59:51 11° 89° (E) 06:01:07 145.795 - 145.815
AO-85 25 Jun 06:02:01 06:06:02 53° 239° (WSW) 06:10:16 145.980
AO-7 25 Jun 06:11:21 06:18:57 40° 303° (WNW) 06:26:32 .
STRAND 1 25 Jun 06:11:40 06:15:27 21° 61° (ENE) 06:19:15 437.568
KAITUO 1B 25 Jun 06:13:42 06:15:30 13° 90° (E) 06:17:18 145.475/437.950
CUTE-I 25 Jun 06:19:25 06:23:33 22° 92° (E) 06:27:40 437.470
BEESAT 3 25 Jun 06:23:06 06:27:02 55° 239° (WSW) 06:30:54 437.485
NO-84 25 Jun 06:29:27 06:32:24 18° 234° (SW) 06:35:16 435.350 FM
NUDT-PHONESAT 25 Jun 06:48:59 06:52:21 32° 97° (E) 06:55:42 437.300
DOVE 4 25 Jun 06:49:46 06:54:38 84° 284° (WNW) 06:59:46 437.250
HO-68 25 Jun 06:57:24 07:01:59 18° 88° (E) 07:06:31 435.675
XW-2F 25 Jun 07:02:35 07:06:19 61° 100° (E) 07:10:01 145.980 - 146.000
O/OREOS (USA 219) 25 Jun 07:04:19 07:08:34 40° 59° (ENE) 07:12:46 437.305
XW-2D 25 Jun 07:06:10 07:09:58 74° 102° (ESE) 07:13:42 145.860 - 145.880
LilacSat-2 25 Jun 07:13:47 07:17:36 86° 285° (WNW) 07:21:23 437.200
XW-2B 25 Jun 07:15:09 07:18:57 89° 280° (W) 07:22:42 145.730 - 145.750
BEESAT 2 25 Jun 07:20:55 07:24:44 39° 241° (WSW) 07:28:29 435.950
YUBILEINY 25 Jun 07:24:17 07:29:53 18° 55° (NE) 07:35:26 435.215
XW-2C 25 Jun 07:30:42 07:34:25 56° 286° (WNW) 07:38:05 145.795 - 145.815
SEEDS 25 Jun 07:37:46 07:40:28 17° 91° (E) 07:43:09 437.485
FO-29 25 Jun 07:42:09 07:44:41 12° 46° (NE) 07:47:19 435.910
KAITUO 1B 25 Jun 07:46:12 07:49:47 47° 288° (WNW) 07:53:20 145.475/437.950
XW-2A 25 Jun 07:47:15 07:49:52 20° 94° (E) 07:52:28 145.665 - 145.685
STRAND 1 25 Jun 07:49:08 07:54:12 59° 259° (W) 07:59:19 437.568
CUTE 1.7 + AOD 2 25 Jun 07:53:22 07:57:17 37° 97° (E) 08:01:11 437.475
RS-15 25 Jun 07:53:38 08:04:22 40° 253° (WSW) 08:14:39 29.354- 29.394
CUTE-I 25 Jun 07:58:41 08:03:56 55° 290° (WNW) 08:09:10 437.470
CUBEBUG 2 25 Jun 07:59:40 08:03:35 25° 93° (E) 08:07:26 437.445
AO-7 25 Jun 08:07:05 08:09:25 11° 326° (NW) 08:11:46 .
NUDT-PHONESAT 25 Jun 08:23:22 08:26:03 19° 294° (WNW) 08:28:43 437.300
Oscar 11 25 Jun 08:26:33 08:26:36 10° 87° (E) 08:26:39 .
AAUSAT CUBESAT 2 25 Jun 08:29:31 08:33:05 28° 95° (E) 08:36:37 437.432
DOVE 4 25 Jun 08:29:37 08:31:38 13° 301° (WNW) 08:33:41 437.250
ZACube-1 25 Jun 08:30:56 08:33:59 18° 90° (E) 08:36:59 437.345
UNISAT 6 25 Jun 08:31:17 08:33:20 13° 58° (ENE) 08:35:24 437.425
UWE-3 25 Jun 08:34:11 08:38:23 33° 95° (E) 08:42:27 435.000/436.395/437.385
XW-2F 25 Jun 08:38:33 08:39:57 12° 298° (WNW) 08:41:21 145.980 - 146.000
XW-2D 25 Jun 08:43:05 08:43:33 10° 300° (WNW) 08:44:01 145.860 - 145.880
HO-68 25 Jun 08:43:25 08:50:39 89° 106° (ESE) 08:57:50 435.675
O/OREOS (USA 219) 25 Jun 08:44:13 08:47:44 23° 257° (WSW) 08:51:13 437.305
Tancredo 1 25 Jun 09:05:24 09:08:24 65° 149° (SSE) 09:11:26 437.200
M-CUBED/EXP-1 PRIME 25 Jun 09:08:23 09:11:39 68° 69° (ENE) 09:14:54 437.505
SEEDS 25 Jun 09:12:24 09:16:25 46° 288° (WNW) 09:20:23 437.485
ISS 25 Jun 09:19:27 09:22:36 46° 144° (SE) 09:25:47 437.550
YUBILEINY 25 Jun 09:19:35 09:28:29 74° 79° (E) 09:37:15 435.215
XW-2A 25 Jun 09:19:44 09:22:35 25° 291° (WNW) 09:25:26 145.665 - 145.685
FO-29 25 Jun 09:22:05 09:28:04 56° 68° (ENE) 09:34:51 435.910
PRISM 25 Jun 09:23:04 09:26:45 35° 69° (ENE) 09:30:28 437.425
TIGRISAT 25 Jun 09:23:14 09:27:23 35° 68° (ENE) 09:31:38 435.000
CUTE 1.7 + AOD 2 25 Jun 09:29:40 09:32:55 22° 294° (WNW) 09:36:08 437.475
AO-73 25 Jun 09:31:17 09:35:45 66° 102° (ESE) 09:40:04 145.935
CUBEBUG 2 25 Jun 09:35:55 09:40:18 38° 291° (WNW) 09:44:35 437.445
Oscar 11 25 Jun 09:58:59 10:03:19 82° 284° (WNW) 10:07:36 .
DELFI C3 25 Jun 09:59:50 10:03:13 27° 95° (E) 10:06:35 145.870
UNISAT 6 25 Jun 10:04:42 10:09:18 87° 251° (WSW) 10:14:02 437.425
AAUSAT CUBESAT 2 25 Jun 10:04:59 10:08:29 27° 292° (WNW) 10:11:57 437.432
ZACube-1 25 Jun 10:06:13 10:10:34 49° 289° (WNW) 10:14:48 437.345
AIST 2D 25 Jun 10:07:35 10:08:36 11° 62° (ENE) 10:09:36 435.315
UWE-3 25 Jun 10:10:47 10:14:43 28° 294° (WNW) 10:18:34 435.000/436.395/437.385
NANOSAT C BR1 25 Jun 10:24:08 10:24:37 10° 58° (ENE) 10:25:06 145.865
HO-68 25 Jun 10:32:21 10:37:30 22° 307° (NW) 10:42:38 435.675
Tancredo 1 25 Jun 10:41:25 10:44:11 31° 347° (NNW) 10:46:57 437.200
ISS 25 Jun 10:56:02 10:59:09 39° 343° (NNW) 11:02:17 437.550
POLYITAN 1 25 Jun 10:58:09 11:01:36 24° 66° (ENE) 11:05:05 437.675
PRISM 25 Jun 10:59:03 11:02:08 21° 266° (W) 11:05:14 437.425
TIGRISAT 25 Jun 11:00:10 11:04:06 28° 266° (W) 11:08:08 435.000
EO-88 25 Jun 11:03:39 11:07:19 79° 283° (WNW) 11:10:57 145.990 - 145.960
FO-29 25 Jun 11:08:27 11:13:36 28° 270° (W) 11:19:18 435.910
QB50P2 25 Jun 11:08:31 11:12:20 33° 68° (ENE) 11:16:11 145.880/145.840
AO-73 25 Jun 11:08:54 11:11:25 15° 299° (WNW) 11:13:54 145.935
YUBILEINY 25 Jun 11:17:32 11:24:24 26° 280° (W) 11:31:14 435.215
BUGSAT 1 25 Jun 11:25:35 11:27:26 13° 60° (ENE) 11:29:18 437.445
LO-87 25 Jun 11:27:39 11:30:45 26° 96° (E) 11:33:50 145.935 - 145.965
EO-79 25 Jun 11:32:44 11:36:53 54° 72° (ENE) 11:41:04 145.935-145.965
DELFI C3 25 Jun 11:34:38 11:37:56 26° 292° (WNW) 11:41:13 145.870
AIST 2D 25 Jun 11:37:48 11:41:18 59° 259° (W) 11:44:51 435.315
DUCHIFAT 1 25 Jun 11:47:02 11:51:12 62° 74° (ENE) 11:55:26 145.980
NANOSAT C BR1 25 Jun 11:55:21 11:59:35 85° 78° (ENE) 12:03:53 145.865
Gurwin Techsat 1B 25 Jun 12:01:04 12:02:14 11° 53° (NE) 12:03:24 435.225
PCSat 25 Jun 12:07:05 12:12:07 41° 113° (ESE) 12:17:12 145.827
ESTCUBE 1 25 Jun 12:14:57 12:19:21 52° 100° (E) 12:23:43 437.505/2401.250
Tancredo 1 25 Jun 12:17:41 12:20:20 26° 7° (N) 12:22:58 437.200
VELOX 1 25 Jun 12:18:58 12:21:28 15° 90° (E) 12:23:57 145.980
ISS 25 Jun 12:33:18 12:36:11 27° 3° (N) 12:39:04 437.550
POLYITAN 1 25 Jun 12:33:19 12:37:13 34° 263° (W) 12:41:10 437.675
SPROUT 25 Jun 12:41:00 12:44:40 27° 95° (E) 12:48:19 437.525
QB50P2 25 Jun 12:44:39 12:48:09 25° 266° (W) 12:51:43 145.880/145.840
Oscar 19 25 Jun 12:44:49 12:49:29 36° 67° (ENE) 12:54:09 437.125/150
50 SAT 25 Jun 12:51:30 12:52:48 12° 91° (E) 12:54:07 437.505
BUGSAT 1 25 Jun 12:58:05 13:02:12 72° 257° (WSW) 13:06:25 437.445
LO-87 25 Jun 13:01:09 13:04:05 23° 292° (WNW) 13:07:00 145.935 - 145.965
EO-79 25 Jun 13:10:27 13:12:59 15° 270° (W) 13:15:31 145.935-145.965
DUCHIFAT 1 25 Jun 13:25:15 13:27:18 13° 271° (W) 13:29:20 145.980
AO-7 25 Jun 13:29:46 13:35:58 24° 48° (NE) 13:42:11 .
Gurwin Techsat 1B 25 Jun 13:35:55 13:41:09 64° 72° (ENE) 13:46:26 435.225
PCSat 25 Jun 13:50:36 13:55:34 36° 313° (NW) 14:00:36 145.827
ESTCUBE 1 25 Jun 13:52:41 13:55:46 19° 298° (WNW) 13:58:51 437.505/2401.250
Tancredo 1 25 Jun 13:53:15 13:56:17 66° 26° (NNE) 13:59:19 437.200
VELOX 1 25 Jun 13:53:56 13:58:18 60° 287° (WNW) 14:02:40 145.980
ISS 25 Jun 14:09:53 14:13:07 54° 23° (NNE) 14:16:22 437.550
DX 1 25 Jun 14:13:59 14:18:22 76° 102° (ESE) 14:22:45 434.975-435.025
SPROUT 25 Jun 14:16:45 14:20:34 31° 292° (WNW) 14:24:21 437.525
50 SAT 25 Jun 14:22:34 14:25:50 44° 288° (WNW) 14:29:06 437.505
Oscar 19 25 Jun 14:24:14 14:28:48 32° 264° (W) 14:33:24 437.125/150
UKube-1 25 Jun 14:31:28 14:35:49 79° 104° (ESE) 14:40:08 .
SO-50 25 Jun 14:42:49 14:47:16 57° 121° (ESE) 14:51:43 436.795
ITAMSAT 1 25 Jun 15:00:34 15:05:36 53° 70° (ENE) 15:10:42 435.822/435.867
Gurwin Techsat 1B 25 Jun 15:17:55 15:21:33 18° 270° (W) 15:25:12 435.225
AO-7 25 Jun 15:19:19 15:27:39 86° 70° (ENE) 15:36:04 .
MOZHAYETS 4 25 Jun 15:27:32 15:31:00 21° 92° (E) 15:34:28
Tancredo 1 25 Jun 15:29:24 15:31:36 18° 223° (SW) 15:33:47 437.200
PCSat 25 Jun 15:39:15 15:40:39 11° 336° (NNW) 15:42:05 145.827
ITUPSAT 1 25 Jun 15:45:05 15:49:42 45° 99° (E) 15:54:16 437.325
ISS 25 Jun 15:46:36 15:49:28 27° 221° (SW) 15:52:19 437.550
DX 1 25 Jun 15:51:54 15:53:59 13° 301° (WNW) 15:56:02 434.975-435.025
BEESAT 25 Jun 15:55:05 15:59:49 57° 101° (E) 16:04:30 436.000
UKube-1 25 Jun 16:09:23 16:11:14 13° 301° (WNW) 16:13:04 .
CUBESAT XI-V 25 Jun 16:10:02 16:11:14 11° 87° (E) 16:12:26 437.345
DOVE 4 25 Jun 16:22:38 16:24:47 14° 60° (ENE) 16:26:59 437.250
SO-50 25 Jun 16:24:19 16:28:02 24° 321° (NW) 16:31:46 436.795
ITAMSAT 1 25 Jun 16:41:26 16:45:23 22° 268° (W) 16:49:23 435.822/435.867
